www.pogodaiklimat.ru

Погода и климат >> Архив погоды >> Таиланд >> Патхумтхани


ПОГОДА в Патхумтхани

  • Прогноз погоды в Патхумтхани
  • Монитор погоды в Патхумтхани

АРХИВ ПОГОДЫ в Патхумтхани

Время (UTC), дата Ветер
(напр.,м/с)
 
Видим.   Явления Облачность Т
(С)
Тd
(С)
f
(%)
Тe
(С)
Тes
(С)
Комфортность P
(гПа)
Po
(гПа)
Тmin
(С)
Tmax
(С)
R
(мм)
R24
(мм)
S
(см)
12 17.06 штиль 0 8000 м дымка 10/4 600 м
[Cu Sc Ac lent Cs]
+28.0 +27.3 96 +45 +45 опасность
перегрева
1005.7 1004.9 +33.8
15 17.06 штиль 0 7000 м дымка 10/6 600 м
[Cu Sc Ac As]
+27.5 +26.8 96 +43 +43 опасность
перегрева
1007.4 1006.6
18 17.06 штиль 0 7000 м дымка 10/5 600 м
[Cu Sc Ac lent]
+26.5 +25.8 96 +39 +39 очень
душно
1007.1 1006.3
21 17.06 штиль 0 7000 м дымка 10/5 600 м
[Cu Sc Ac lent]
+26.0 +25.3 96 +38 +38 очень
душно
1006.7 1005.9
00 18.06 ЮВ 2 8000 м дымка 10/5 1000 м
[Sc Ac As Cs]
+27.1 +27.0 99 +42 +43 опасность
перегрева
1006.2 1005.4 +26.0
03 18.06 Ю 4 8000 м дымка 10/5 1000 м
[Sc Ac As Cs]
+31.9 +25.9 71 +47 +50 опасность
перегрева
1007.6 1006.8
06 18.06 ЮЗ 4 8000 м дымка 10/8 1000 м
[Cu Sc Ac As Cs]
+33.5 +26.6 67 +50 +52 опасность
перегрева
1006.6 1005.8
09 18.06 ЮЗ 3 8000 м дымка 10/8 1000 м
[Cu Sc Ac As Cs]
+32.3 +26.6 72 +49 +50 опасность
перегрева
1004.8 1004.1
12 18.06 Ю 3 8000 м дымка 10/4 1000 м
[Sc Ac As Cs]
+30.4 +26.8 81 +47 +47 опасность
перегрева
1005.4 1004.6 +34.2
15 18.06 ЮЗ 1 8000 м дымка 10/5 1000 м
[Sc Ac As Cs]
+29.7 +25.9 80 +44 +44 опасность
перегрева
1007.6 1006.8
18 18.06 ЮВ 2 8000 м дымка 10/6 1000 м
[Sc Ac As Cs]
+28.6 +26.4 88 +44 +44 опасность
перегрева
1007.1 1006.3
21 18.06 ЮВ 2 8000 м дымка 8/3 1000 м
[Sc Ac As Cs]
+28.0 +26.6 92 +43 +43 опасность
перегрева
1006.3 1005.5
00 19.06 штиль 0 8000 м дымка 9/0
[Ac und Cs]
+27.7 +27.3 98 +44 +45 опасность
перегрева
1007.4 1006.6 +26.8
03 19.06 В 5 8000 м дымка 9/4 600 м
[Sc Ac und Cs]
+30.5 +28.2 88 +51 +54 опасность
перегрева
1008.3 1007.5
06 19.06 ЮЗ 5 9000 м дымка 6/3 600 м
[Cu med, cong Ac und Cs]
+34.2 +26.9 66 +52 +58 опасность
перегрева
1007.3 1006.5
09 19.06 ЮЗ 3 9000 м дымка 5/3 600 м
[Cu med, cong Ac und Cs]
+34.8 +27.3 65 +53 +57 опасность
перегрева
1005.7 1004.9
12 19.06 ЮЗ 3 8000 м дымка 6/3 600 м
[Cu med, cong Ac und Cs]
+32.3 +27.1 74 +50 +50 опасность
перегрева
1005.4 1004.6 +35.5
15 19.06 ЮЗ 5 8000 м дымка 6/3 600 м
[Cu med, cong Ac und Cs]
+29.2 +24.9 78 +42 +42 опасность
перегрева
1007.2 1006.4
18 19.06 ЮЗ 3 8000 м дымка 8/3 600 м
[Sc Ac und Cs]
+28.0 +25.4 86 +41 +41 опасность
перегрева
1007.7 1006.9
21 19.06 штиль 0 8000 м дымка 3/0
[Cs]
+27.2 +25.5 90 +40 +40 очень
душно
1006.9 1006.1
00 20.06 В 3 10 км 3/0
[Cs]
+26.5 +25.8 96 +39 +40 очень
душно
1008.8 1008.0 +26.0
03 20.06 ЮВ 2 10 км 4/0
[Cs]
+32.7 +26.9 72 +51 +65 опасность
перегрева
1009.2 1008.4
06 20.06 З 5 10 км 6/3 1000 м
[Cu med, cong Cs]
+35.0 +27.0 63 +53 +60 опасность
перегрева
1007.4 1006.6
09 20.06 З 6 10 км 6/3 1000 м
[Cu med, cong Cs]
+36.5 +27.7 61 +56 +58 опасность
перегрева
1005.9 1005.1
12 20.06 ЮЗ 4 9000 м дымка 3/0
[Cs]
+34.0 +26.4 65 +51 +51 опасность
перегрева
1006.0 1005.2 +37.0
15 20.06 Ю 2 8000 м дымка 3/0
[Cs]
+31.2 +27.5 81 +50 +50 опасность
перегрева
1008.0 1007.2
18 20.06 штиль 0 8000 м дымка 3/0
[Cs]
+30.0 +27.9 89 +50 +50 опасность
перегрева
1007.2 1006.4
21 20.06 штиль 0 8000 м дымка 3/0
[Cs]
+29.0 +27.6 92 +47 +47 опасность
перегрева
1006.9 1006.1
00 21.06 ЮЗ 2 8000 м дымка 6/0
[Ac lent Cs]
+28.9 +26.1 85 +44 +45 опасность
перегрева
1007.7 1006.9 +27.7
03 21.06 ЮЗ 3 9000 м дымка 3/1 1000 м
[Cu med, cong Ac lent]
+33.6 +27.1 69 +52 +61 опасность
перегрева
1008.6 1007.8
06 21.06 З 5 10 км 4/3 1000 м
[Cu med, cong Ac lent]
+35.5 +26.8 61 +53 +60 опасность
перегрева
1007.0 1006.2
09 21.06 СЗ 10 10 км 4/3 1000 м
[Cu med, cong Ac lent]
+37.0 +27.2 57 +55 +55 опасность
перегрева
1004.7 1003.9
12 21.06 ЮЗ 2 10 км 4/0
[Ac lent Cs]
+34.9 +26.9 63 +52 +52 опасность
перегрева
1004.4 1003.6 +37.8
15 21.06 ЮЗ 2 9000 м дымка 3/0
[Ac lent Cs]
+32.0 +27.9 79 +52 +52 опасность
перегрева
1006.2 1005.4
18 21.06 ЮЗ 4 9000 м дымка 3/0
[Ac lent Cs]
+30.1 +27.9 88 +50 +50 опасность
перегрева
1005.9 1005.1
21 21.06 ЮЗ 3 8000 м дымка 4/0
[Ac lent Cs]
+29.4 +27.5 90 +48 +48 опасность
перегрева
1005.7 1004.9
00 22.06 З 3 8000 м дымка 3/0
[Ac lent Cs]
+29.2 +26.1 83 +44 +45 опасность
перегрева
1005.6 1004.8 +28.5
03 22.06 ЮЗ 5 9000 м дымка 3/0
[Cs]
+34.0 +26.8 66 +51 +59 опасность
перегрева
1006.6 1005.8
06 22.06 З 5 11 км 3/1 600 м
[Cu hum Cs]
+37.0 +27.2 57 +55 +64 опасность
перегрева
1005.3 1004.5
09 22.06 З 3 12 км 3/0
[Cs]
+38.3 +27.3 54 +57 +63 опасность
перегрева
1002.3 1001.5
12 22.06 штиль 0 9000 м дымка 3/0
[Cs]
+35.2 +26.5 61 +52 +52 опасность
перегрева
1002.8 1002.1 +38.7
15 22.06 Ю 3 9000 м дымка 3/0
[Cs]
+32.2 +27.8 78 +52 +52 опасность
перегрева
1004.7 1003.9
18 22.06 штиль 0 8000 м дымка 1/0
[Cs]
+31.0 +28.1 85 +52 +52 опасность
перегрева
1004.4 1003.7
21 22.06 Ю 3 8000 м дымка 8/0
[Ac trans Cs]
+30.2 +28.6 91 +51 +51 опасность
перегрева
1004.0 1003.2
00 23.06 В 2 10 км 5/0
[Cs]
+29.0 +27.9 94 +48 +49 опасность
перегрева
1005.4 1004.6 +28.5
03 23.06 З 7 10 км 5/0
[Cs]
+34.0 +27.1 67 +52 +56 опасность
перегрева
1005.3 1004.5
06 23.06 З 3 10 км 6/0
[Cs]
+37.5 +28.0 59 +58 +73 опасность
перегрева
1004.5 1003.7
09 23.06 Ю 12 8000 м осадки на расстоянии 10/5 600 м
[Cb cap Ac As Cs]
+34.2 +27.3 67 +53 +53 опасность
перегрева
1003.2 1002.5
12 23.06 ЮВ 7 8000 м дымка {дождь} 10/5 600 м
[Cu Sc Ac lent]
+29.2 +27.5 91 +47 +47 опасность
перегрева
1004.3 1003.5 +38.5 0.1
15 23.06 ЮВ 2 8000 м дымка 8/3 600 м
[Sc Ac lent Cs]
+28.5 +27.1 92 +45 +45 опасность
перегрева
1006.8 1006.0
18 23.06 ЮВ 2 8000 м дымка 10/4 600 м
[Sc Ac lent Cs]
+28.0 +26.6 92 +43 +43 опасность
перегрева
1006.5 1005.7
21 23.06 ЮВ 2 8000 м дымка 8/3 600 м
[Sc Ac lent Cs]
+27.5 +26.1 92 +41 +41 опасность
перегрева
1006.1 1005.3
00 24.06 ЮЗ 5 8000 м дымка 10/3 1000 м
[Sc Ac As Cs]
+28.0 +26.6 92 +43 +43 опасность
перегрева
1007.0 1006.2 +27.3
03 24.06 Ю 2 8000 м дымка 8/0
[Ac lent Cs]
+29.4 +27.5 90 +48 +56 опасность
перегрева
1008.1 1007.3
06 24.06 В 5 8000 м дымка 8/3 1000 м
[Cu med, cong Ac lent Cs]
+35.0 +28.7 70 +58 +63 опасность
перегрева
1006.4 1005.6

 

Местоположение метеостанции Патхумтхани (Таиланд): широта 14.10 долгота 100.62 высота над уровнем моря 7 м.

В архиве по умолчанию представлена погода в Патхумтхани за последнюю неделю. Архивные данные за месяц целиком и за предыдущие месяцы, начиная с января 2011 года, Вы можете получить, выбрав интересующий диапазон дат из раскрывающегося списка и нажав кнопку "Ввод!".


*Определитесь, кто Вы:
робот инопланетянин человек

Внимание! Время в таблицах - всемирное. Для получения местного времени необходимо прибавить поправку, которая равна 7 ч.

Смотрите также архив погоды в соседних городах и на ближайших метеорологических станциях:

Погода в Дон Муанг (Таиланд) (20 км)
Погода в Бангкоке (Таиланд) (42 км)
Погода в Бангкоке 2 (Таиланд) (45 км)
Погода в Бангна Агромете (Таиланд) (48 км)
Погода в Аюттхая (Таиланд) (48 км)
Погода в Аэропорту Суварнабхуми (Таиланд) (49 км)
Погода в Сарабури (Таиланд) (57 км)
Погода в Самутрудкан Агромете (Таиланд) (66 км)
Погода в Суфанбури (Таиланд) (67 км)
Погода в Накхонпатхоме (Таиланд) (71 км)

Пояснения к столбцам:

Ветер - указаны скорость ветра в м/с - средняя за 10 мин, порывы в срок и между сроками (в фигурных скобках) и направление, откуда дует ветер: С - северный, СВ - северо-восточный, В - восточный, ЮВ - юго-восточный, Ю - южный, ЮЗ - юго-западный, З - западный, СЗ - северо-западный.
Видимость - горизонтальная дальность видимости в метрах или километрах. При видимости от 1 до 10 км при отсутствии осадков обычно наблюдается дымка, при ухудшении видимости до 1 км и менее - туман. В сухую погоду видимость может ухудшаться дымом, пылью или мглою.
Явления - указаны атмосферные явления, наблюдавшиеся в срок или в последний час перед сроком; фигурными скобками обозначены явления, наблюдавшиеся между сроками (за 1-3 часа до срока); квадратными скобками обозначены град или гололедные отложения с указанием их диаметра в мм.
Облачность - указаны через наклонную черту общая и нижняя облачность в баллах и высота нижней границы облаков в метрах; квадратными скобками обозначены формы облаков: Ci - перистые, Cs - перисто-слоистые, Cc - перисто-кучевые, Ac - высококучевые, As - высокослоистые, Sc - слоисто-кучевые, Ns - слоисто-дождевые, Cu - кучевые, Cb - кучево-дождевые. Подробнее классификацию облаков см. в Атласе облаков (PDF).
T - Температура воздуха - температура, измеренная на высоте 2 м над землей.
Td - Температура точки росы - температура, при понижении до которой содержащийся в воздухе водяной пар достигнет насыщения.
f - Относительная влажность воздуха - влажноcть воздуха, измеренная на высоте 2 м над землей.
Te - Эффективная температура - температура, которую ощущает одетый по сезону человек в тени. Характеристика душности погоды. При расчете учитывается влияние влажности воздуха и скорости ветра на теплоощущения человека.
Tes - Эффективная температура на солнце - температура, которую ощущает человек, с поправкой на солнечный нагрев. Характеристика знойности погоды. Зависит от высоты солнца над горизонтом, облачности и скорости ветра. Ночью, в пасмурную погоду, а также при ветре 12 м/с и более поправка равна нулю.
P - Атмосферное давление - приведенное к уровню моря атмосферное давление.
Po - Атмосферное давление - измеренное на уровне метеостанции атмосферное давление.
Tmin - Минимальная температура - минимум температуры воздуха на высоте 2 м над землей.
Tmax - Максимальная температура - максимум температуры воздуха на высоте 2 м над землей.
R - Количество осадков - Количество выпавших осадков за период времени, мм. При наведении курсора мыши на число - период времени, за который выпало указанное количество осадков.
R24 - Количество осадков - Количество выпавших осадков за 24 часа, мм.
S - Снежный покров - Высота снежного покрова, см. При наведении курсора мыши на число - состояние снежного покрова и степень покрытия местности в баллах.